Погода в Менделеево

Россия / Пермский край     58°10′10″N   54°59′38″E
темп.,
°C
ветер,
м/с
пор.,
м/с
влажн.,
%
обл.,
%
осадки,
мм/ч
давл.,
гПа
погр.,
м
24 мая, вт
вт2423:00+3ю227978 0.2 100023
02:00+2ююв238399 0.0 100255
05:00+1ююв2289100 0.0 100345
08:00+6ююв3675100 0.0 1003415
11:00+7ююз5775100 0.2 10051105
14:00+10ююз585283 0.3 10061866
17:00+11юз474361 0.3 10072010
20:00+11ююв235528 0.0 100779
25 мая, ср
ср2523:00+6юв227160 0.0 100810
02:00+3с118694 0.0 100910
05:00+3в11865 0.0 100810
08:00+9ю126676 0.0 1008250
11:00+14зюз1251100 0.0 10071099
14:00+15в1245100 0.0 10061676
17:00+13юв3466100 0.4 1005565
20:00+11ююв2580100 0.9 1005205
26 мая, чт
чт2623:00+8зюз3793100 1.9 1006280
02:00+5юз4794100 0.1 1007567
05:00+4ююз5109220 0.2 1008600
08:00+5ююз510816 0.0 1009764
11:00+9юз696171 0.2 10091570
14:00+10юз6956100 0.1 10111725
17:00+11ююз5853100 0.2 10121868
20:00+9ююз47685 0.1 10111008
27 мая, пт
пт2723:00+5ю37905 0.1 1011133
02:00+4ю249631 0.0 101280
05:00+3ю259637 0.0 1011100
08:00+8ююз367528 0.0 1011443
11:00+12ююз465876 0.2 10101538
14:00+13ююз4652100 0.1 10091841
17:00+14ю365547 0.2 10081546
20:00+12ю4976100 0.1 1008523
28 мая, сб
сб2823:00+10ююв41095100 0.4 1008543
02:00+10ююв51293100 0.5 1006731
05:00+10ююв51292100 0.8 1005789
08:00+10ю51094100 0.9 1005824
11:00+10ююз61194100 3.2 1006874
14:00+15юз7107454 0.6 10071282
17:00+15ююз7968100 1.0 10081247
20:00+13ююз51078100 0.0 1009925